Regional Weather Roundup
Issued by NWS

Home | Current Version | Previous Version | Graphics & Text | Print | Product List | Glossary On
Versions: 1 2 3 4 5 6 7 8 9 10 11 12 13 14 15 16 17 18 19 20 21 22 23 24 25 26 27 28 29 30 31 32 33 34 35 36 37 38 39 40 41 42 43 44 45 46 47 48 49 50
136
ASUS43 KMPX 301910
RWRMN
WEATHER ROUNDUP FOR MINNESOTA
NATIONAL WEATHER SERVICE TWIN CITIES/CHANHASSEN MN
200 PM CDT SAT JUL 30 2016


NOTE: "FAIR" INDICATES FEW OR NO CLOUDS BELOW 12,000 FEET WITH NO
SIGNIFICANT WEATHER AND/OR OBSTRUCTIONS TO VISIBILITY. N/A MEANS
CURRENT SKY AND/OR WEATHER CONDITIONS ARE NOT AVAILABLE.

MNZ060>063-068>070-302000-
   Twin Cities Metro

CITY           SKY/WX    TMP DP  RH WIND       PRES   REMARKS
TWIN CITIES    MOSUNNY   79  62  56 SE12      30.01F
ST PAUL        SUNNY     80  64  58 SE7       30.01F
CRYSTAL        SUNNY     79  60  52 S8        30.00F
BLAINE         PTSUNNY   81  63  54 SE5       30.01F
LAKEVILLE      PTSUNNY   75  64  69 CALM      30.02F
EDEN PRAIRIE   PTSUNNY   80  63  55 S3        30.00F
LAKEVILLE      PTSUNNY   75  64  69 CALM      30.02F
SOUTH ST PAUL  MOSUNNY   79  62  55 SE7       30.01F
LAKE ELMO      FAIR      77  64  65 SE7       30.03F
$$
MNZ001>005-007-008-013>017-022>024-027-028-302000-
   Northwest Minnesota

CITY           SKY/WX    TMP DP  RH WIND       PRES   REMARKS
BEMIDJI        CLOUDY    68  60  76 W3        30.03F
HALLOCK        MOSUNNY   81  66  61 S15G21    29.90F
ROSEAU         CLOUDY    75  66  73 S12       29.95F
WARROAD        MOSUNNY   77  64  65 S10       29.97S
THIEF RVR FALL MOSUNNY   77  63  61 S15       29.98F
CROOKSTON      SUNNY     81  61  50 S13G20    29.95F
FOSSTON        PTSUNNY   73  64  73 SE8       30.01S
DETROIT LAKES  MOSUNNY   77  59  53 S13       30.02F
MOORHEAD       SUNNY     79  59  50 S13       29.97F
PARK RAPIDS    CLOUDY    76  55  48 S8        30.02F
MAHNOMEN       CLOUDY    74  61  64 S8        30.00F
$$
MNZ006-009>011-018-025>026-302000-
   North Central Minnesota

CITY           SKY/WX    TMP DP  RH WIND       PRES   REMARKS
BAUDETTE       CLOUDY    74  65  73 S12G23    29.99S
FLAG ISLAND    MOSUNNY   75  64  69 S13       29.95S
INTL FALLS     PTSUNNY   77  59  53 MISG      30.00F
WASKISH        CLOUDY    72  63  73 S6        30.01F
BIG FORK       SUNNY     81  57  44 S8        30.02F
LONGVILLE      MOSUNNY   79  57  47 S6        30.03F
GRAND RAPIDS   MOSUNNY   77  57  50 VRB3      30.05F
CRANE LAKE     SUNNY     75  50  41 E2        30.05S
ORR            MOSUNNY   77  50  38 CALM      30.01F
COOK           MOSUNNY   73  55  53 E3        30.04F
WALKER         CLOUDY    73  58  59 CALM      30.03S
$$
MNZ012-019>021-037-302000-
   Northeast Minnesota

CITY           SKY/WX    TMP DP  RH WIND       PRES   REMARKS
DULUTH         MOSUNNY   75  61  61 VRB7      30.05F
ELY            SUNNY     75  52  43 SW8       30.05S
HIBBING        CLOUDY    73  51  46 CALM      30.04F
EVELETH        SUNNY     75  47  37 CALM      30.06F
DULUTH HARBOR  SUNNY     68  63  83 NE9       30.06F
TWO HARBORS    SUNNY     75  61  60 E8        30.05S
SILVER BAY     SUNNY     73  57  56 E7        30.05S
GRAND MARAIS     N/A     68  59  73 E7        30.07F
G MARAIS ARPRT SUNNY     70  48  46 SE3       30.10F
$$
MNZ029>031-032-039>041-046>048-054>057-064-302000-
   West Central Minnesota

CITY           SKY/WX    TMP DP  RH WIND       PRES   REMARKS
FERGUS FALLS   SUNNY     75  59  57 SE10      30.01S
WHEATON        SUNNY     79  63  57 SE7       30.00F
MORRIS         SUNNY     81  57  44 SE10      30.00F
ALEXANDRIA     SUNNY     77  54  44 SE7       30.03F
ELBOW LAKE     FAIR      76  60  57 SE10      30.01F
WADENA         SUNNY     75  55  50 SE8       30.02F
GLENWOOD       SUNNY     77  55  47 SE6       30.03F
APPLETON       SUNNY     79  57  47 E8        29.99F
BENSON         SUNNY     77  52  41 SW3       30.01F
ORTONVILLE     SUNNY     79  57  47 SE3       29.99F
MADISON        SUNNY     79  57  47 SE9       30.00F
WILLMAR        FAIR      77  59  53 SE5       30.03F
$$
MNZ033>034-036-042>043-049>051-058-059-302000-
   Central Minnesota

CITY           SKY/WX    TMP DP  RH WIND       PRES   REMARKS
ST CLOUD       SUNNY     78  62  57 VRB5      30.01F
SAUK CENTRE    FAIR      76  55  48 S9        30.03F
PAYNESVILLE    SUNNY     77  54  45 S3        30.03F
AITKIN         MOSUNNY   81  52  36 SE3       30.02F
PINE RIVER     SUNNY     77  59  53 SE7       30.06F
BRAINERD       MOSUNNY   76  56  49 S6        30.03F
STAPLES        MOSUNNY   77  54  44 S6G17     30.03F
LONG PRAIRIE   FAIR      73  54  49 SE3       30.03F
LITTLE FALLS   SUNNY     77  55  47 E6        30.03F
LITCHFIELD     SUNNY     79  61  53 E6        30.02F
BUFFALO        SUNNY     78  60  53 SE3       30.02F
MAPLE LAKE     SUNNY     79  64  60 CALM      30.02F
HUTCHINSON     SUNNY     78  59  51 SE7       30.03F
$$
MNZ037-044-045-052-053-302000-
   East Central Minnesota

CITY           SKY/WX    TMP DP  RH WIND       PRES   REMARKS
PRINCETON      MOSUNNY   81  63  54 E5        30.02F
MORA           MOSUNNY   77  59  53 SE6       30.04F
CAMBRIDGE      PTSUNNY   79  63  57 CALM      30.00F
RUSH CITY      MOSUNNY   78  62  56 SE8       30.03F
MOOSE LAKE     CLOUDY    73  61  64 CALM      30.02F
HINCKLEY       CLOUDY    75  63  64 E3        30.03F
CLOQUET        PTSUNNY   75  57  53 S6        30.05F
MCGREGOR       MOSUNNY   79  55  44 S5        30.04F
$$
MNZ071>073-080-081-089-090-097-098-302000-
   Southwest Minnesota

CITY           SKY/WX    TMP DP  RH WIND       PRES   REMARKS
MONTEVIDEO     SUNNY     79  55  44 SE8       30.02F
GRANITE FALLS  SUNNY     78  55  46 SE7       30.03F
CANBY          SUNNY     80  55  43 S6        30.01F
MARSHALL       MOSUNNY   76  57  51 E3        30.01F
REDWOOD FALLS  PTSUNNY   78  54  43 VRB5      30.01F
OLIVIA         MOSUNNY   73  54  49 E3        30.02S
PIPESTONE      MOSUNNY   77  57  50 S5        30.02F
WINDOM         SUNNY     77  54  44 SE5       30.02F
WORTHINGTON    SUNNY     76  56  49 SE7       30.03F
JACKSON        MOSUNNY   77  54  44 SE3       30.03F
TRACY          MOSUNNY   77  58  51 E3        30.02F
SLAYTON        SUNNY     77  53  43 S5        30.04F
$$
MNZ065>067-074>077-082>085-091>093-302000-
   South Central Minnesota

CITY           SKY/WX    TMP DP  RH WIND       PRES   REMARKS
MANKATO        SUNNY     77  59  53 E3        30.01F
NEW ULM        SUNNY     77  52  41 SE5       30.02S
ST JAMES       SUNNY     73  54  49 SW5       30.02F
FAIRMONT       CLOUDY    75  57  53 CALM      30.02F
GLENCOE        MOSUNNY   80  64  57 S3        30.01F
FARIBAULT      SUNNY     75  64  69 S5        30.02F
OWATONNA       SUNNY     75  63  64 CALM      30.02F
WASECA         PTSUNNY   77  64  65 CALM      30.03F
ALBERT LEA     PTSUNNY   75  64  69 SE6       30.03S
$$
MNZ078>079-086>088-094>096-302000-
   Southeast Minnesota

CITY           SKY/WX    TMP DP  RH WIND       PRES   REMARKS
ROCHESTER      MOSUNNY   76  64  66 SE5       30.03F
RED WING       MOSUNNY   81  57  44 E8        30.01F
STANTON        CLOUDY    77  64  65 NE5       30.00F
DODGE CENTER   RAIN      72  64  78 S8        30.05R
WINONA         MOSUNNY   79  61  53 E7        30.02F
AUSTIN         CLOUDY    72  64  78 E3        30.03F
PRESTON        MOSUNNY   76  62  60 SE9       30.04F
$$
ABBREVIATIONS USED IN REMARKS
   TC - TEMPERATURES IN CELSIUS
  WCI - WIND CHILL INDEX
   HX - HEAT INDEX
  VSB - VISIBILITY
$$




USA.gov is the U.S. government's official web portal to all federal, state and local government web resources and services.